OBJECT J, 62385

Orbit data source: Space-Track

You're viewing an Uncataloged Satellite

Recently launched and/or uncataloged satellites may have evolving metadata. Metadata may include but not limited to: Owner, Maufacturer, Bus, Motor, and Mission.

OBJECT J, 62385 is a satellite in LEO that was launched on Sat, 21 Dec 2024 UTC via an FALCON 9 launch vehicle from the Air Force Western Test Range (AFWTR). Unknown objects in Earth's orbit typically refer to objects detected orbiting the Earth but have not yet been identified or cataloged. These objects could be anything from previously untracked satellites, spent rocket stages, debris from satellite collisions, or even natural meteoroids temporarily captured by Earth's gravity.

Loading next visibility...
OBJECT J details
Identifier
62385, 2024-247J
Orbit
LEO
Last TLE update1 day ago
Origin
Flag of TBDONDO Space (TBD)
ManufacturerONDO Space
MissionOperational Commercial Technology
Bus & MotorCUBESAT 0.5U, Unknown motor
Mass0.25 kg wet, 0.25 kg dry
Launch date (UTC)
2024-12-21 (2 months ago)
Launch vehicle
FALCON 9
Launch site
Air Force Western Test Range (AFWTR)
Object typeUnknown
Shape & HBRBox, 0.4 m
Radar Cross Section0.100 m², Small (<0.1 m²)

Expand to show TLE details & history

TLE from 1 day ago
0 OBJECT J
1 62385U 24247J   25035.21129666  .00024108  00000-0  10664-2 0  9995
2 62385  44.9943 119.4362 0003588 257.3166 102.7313 15.21326003  6959
Epoch: 2025-02-04T05:04Z
Definitive object data (Epoch: 2025-02-04T05:04:16.031Z)
Latitude-0.00005°
Longitude-91.25049°
Altitude502.383 km
Speed7.615 km/s
True Right ascension07h 57m 44s
True Declination0° 00' 00"
Sunlit
Object was in full shadow at TLE epoch
Visualization TLE readout
Latitude25.81519°
Longitude54.16298°
Altitude503.152 km
Speed7.616 km/s
Apparent Right ascension19h 05m 44s
Apparent Declination-6° 09' 58"
Sunlit
Object is in daylight
Visualization observer readout
Local Sidereal Time08:56:42
Azimuth43.82° NE
Elevation-48.058°
Doppler factor1
Orbital elements
Apogee altitude505.915 km
Perigee altitude500.977 km
Semi-major axis6,881.583 km
Eccentricity0.0003588
Inclination44.9943°
RAAN119.4362°
Arg. of periapsis257.3166°
True anomaly102.7714°
Mean anomaly102.7313°
Eccentric anomaly102.75135°
Mean motion3.80199 °/min
BSTAR0.0010664
Orbital period94.69 mins
Loading maneuver chart data...
Loading historical data...
Loading historical data...
Loading historical data...
Loading historical data...
Loading historical data...
Loading historical data...
Loading historical data...

OBJECT J Visibility forecast

Observer location: undefined°, undefined

Span
Click to sort rows by Start time (UTC) header in descending order
Start Az.
Max El. time (UTC)
Max El. Az.
Max El.
End time (UTC)
End Az.
6 mins2025-02-05 08:02:27.096Z204.908° SW2025-02-05 08:05:27.096Z149.659° SSE26.656°2025-02-05 08:08:27.096Z86.923° E
6 mins2025-02-05 09:42:27.096Z264.221° W2025-02-05 09:44:27.096Z320.1° NNW41.747°2025-02-05 09:48:27.096Z63.599° ENE
5 mins2025-02-05 11:22:27.096Z307.316° NW2025-02-05 11:24:27.096Z7.603° NNE31.216°2025-02-05 11:27:27.096Z66.361° ENE
6 mins2025-02-05 13:01:27.096Z302.411° NW2025-02-05 13:03:27.096Z345.583° N39.741°2025-02-05 13:07:27.096Z98.649° ESE
4 mins2025-02-05 14:41:27.096Z257.196° W2025-02-05 14:42:27.096Z231.454° WSW27.979°2025-02-05 14:45:27.096Z157.386° SSE
|